User: anonymous   Login
Location: Vancouver
(49.2500°N, 123.1330°W)
Time: 02:13:19
(UTC-07:00)
Language:

S-56A Canister/Altair - Orbit

View from above orbital plane
View from above orbital plane
View from above satellite
View from above satellite

Ground track
Ground track

The orbit data is extracted from the following two-line orbital elements,

1    82U 61004B   16210.52415021 -.00000022 +00000-0 +34426-4 0  9999
2    82 038.8536 054.6654 1166108 072.1551 300.2704 12.25768415633547
Epoch (UTC): 28 July 2016 12:34:46
Eccentricity: 0.1166108
inclination: 38.8536°
perigee height: 641 km
apogee height: 2494 km
right ascension of ascending node: 54.6654°
argument of perigee: 72.1551°
revolutions per day: 12.25768415
mean anomaly at epoch: 300.2704°
orbit number at epoch: 63354

The dashed part of the orbit path shows where the satellite is in the earth's shadow,  

DLR